Time,TemperatureF,DewpointF,PressureIn,WindDirection,WindDirectionDegrees,WindSpeedMPH,WindSpeedGustMPH,Humidity,HourlyPrecipIn,Conditions,Clouds,dailyrainin,SolarRadiationWatts/m^2,SoftwareType,DateUTC
2013-04-03 00:11:00,47.9,46.0,30.13,SSE,163,0.0,3.0,94,0.00,,,0.00,0,weatherlink.com 1.10,2013-04-03 07:11:00,
2013-04-03 00:41:00,47.7,46.0,30.13,SSE,163,0.0,2.0,94,0.00,,,0.00,0,weatherlink.com 1.10,2013-04-03 07:41:00,
2013-04-03 00:56:00,47.6,46.0,30.14,SSE,163,0.0,1.0,94,0.00,,,0.00,0,weatherlink.com 1.10,2013-04-03 07:56:00,
2013-04-03 01:12:00,47.5,46.0,30.14,SSE,163,0.0,2.0,95,0.00,,,0.00,0,weatherlink.com 1.10,2013-04-03 08:12:00,
2013-04-03 01:42:00,47.5,46.0,30.13,SSE,163,0.0,1.0,95,0.00,,,0.00,0,weatherlink.com 1.10,2013-04-03 08:42:00,
2013-04-03 01:57:00,47.4,46.0,30.13,SSE,163,0.0,1.0,95,0.00,,,0.00,0,weatherlink.com 1.10,2013-04-03 08:57:00,
2013-04-03 02:12:00,47.5,46.0,30.12,SSE,163,0.0,0.0,95,0.00,,,0.00,0,weatherlink.com 1.10,2013-04-03 09:12:00,
2013-04-03 02:27:00,47.4,46.0,30.12,SSE,163,0.0,0.0,95,0.00,,,0.00,0,weatherlink.com 1.10,2013-04-03 09:27:00,
2013-04-03 02:42:00,47.4,46.0,30.12,SSE,163,0.0,1.0,95,0.00,,,0.00,0,weatherlink.com 1.10,2013-04-03 09:42:00,
2013-04-03 02:57:00,47.3,46.0,30.11,SSE,163,0.0,1.0,95,0.00,,,0.00,0,weatherlink.com 1.10,2013-04-03 09:57:00,
2013-04-03 03:12:00,47.3,46.0,30.11,SSE,163,0.0,0.0,95,0.00,,,0.00,0,weatherlink.com 1.10,2013-04-03 10:12:00,
2013-04-03 03:27:00,47.2,46.0,30.11,SSE,163,0.0,0.0,95,0.00,,,0.00,0,weatherlink.com 1.10,2013-04-03 10:27:00,
2013-04-03 03:42:00,47.2,46.0,30.11,SSE,163,0.0,1.0,95,0.00,,,0.00,0,weatherlink.com 1.10,2013-04-03 10:42:00,
2013-04-03 03:57:00,47.2,46.0,30.11,SSE,163,0.0,0.0,95,0.00,,,0.00,0,weatherlink.com 1.10,2013-04-03 10:57:00,
2013-04-03 04:12:00,47.0,46.0,30.11,SSE,163,0.0,1.0,95,0.00,,,0.00,0,weatherlink.com 1.10,2013-04-03 11:12:00,
2013-04-03 04:27:00,47.0,46.0,30.11,SE,137,0.0,2.0,95,0.00,,,0.00,0,weatherlink.com 1.10,2013-04-03 11:27:00,
2013-04-03 04:42:00,46.9,46.0,30.11,SE,137,0.0,0.0,95,0.00,,,0.00,0,weatherlink.com 1.10,2013-04-03 11:42:00,
2013-04-03 04:57:00,46.8,46.0,30.11,SE,137,0.0,1.0,95,0.00,,,0.00,0,weatherlink.com 1.10,2013-04-03 11:57:00,
2013-04-03 05:27:00,46.8,46.0,30.10,SE,137,0.0,0.0,95,0.00,,,0.00,0,weatherlink.com 1.10,2013-04-03 12:27:00,
2013-04-03 05:42:00,46.7,45.0,30.10,SE,137,0.0,0.0,95,0.01,,,0.01,0,weatherlink.com 1.10,2013-04-03 12:42:00,
2013-04-03 05:57:00,46.6,45.0,30.10,SE,137,0.0,1.0,95,0.01,,,0.01,0,weatherlink.com 1.10,2013-04-03 12:57:00,
2013-04-03 06:12:00,46.6,45.0,30.10,South,190,0.0,2.0,95,0.01,,,0.01,0,weatherlink.com 1.10,2013-04-03 13:12:00,
2013-04-03 06:27:00,46.4,45.0,30.11,South,190,0.0,1.0,95,0.01,,,0.01,0,weatherlink.com 1.10,2013-04-03 13:27:00,
2013-04-03 06:42:00,46.0,45.0,30.12,South,190,0.0,0.0,95,0.00,,,0.01,0,weatherlink.com 1.10,2013-04-03 13:42:00,
2013-04-03 06:57:00,45.7,44.0,30.12,South,190,0.0,0.0,95,0.00,,,0.01,0,weatherlink.com 1.10,2013-04-03 13:57:00,
2013-04-03 07:12:00,45.5,44.0,30.11,South,190,0.0,0.0,95,0.00,,,0.01,9,weatherlink.com 1.10,2013-04-03 14:12:00,
2013-04-03 07:27:00,45.7,44.0,30.12,South,190,0.0,1.0,95,0.00,,,0.01,19,weatherlink.com 1.10,2013-04-03 14:27:00,
2013-04-03 07:57:00,46.1,45.0,30.13,South,190,0.0,1.0,96,0.00,,,0.01,44,weatherlink.com 1.10,2013-04-03 14:57:00,
2013-04-03 08:12:00,46.4,45.0,30.13,WSW,242,1.0,3.0,95,0.00,,,0.01,91,weatherlink.com 1.10,2013-04-03 15:12:00,
2013-04-03 08:27:00,46.6,46.0,30.13,WSW,242,0.0,1.0,96,0.00,,,0.01,102,weatherlink.com 1.10,2013-04-03 15:27:00,
2013-04-03 08:42:00,46.9,46.0,30.13,SW,220,0.0,3.0,95,0.00,,,0.01,90,weatherlink.com 1.10,2013-04-03 15:42:00,
2013-04-03 08:57:00,47.4,46.0,30.13,SW,220,0.0,1.0,96,0.00,,,0.01,118,weatherlink.com 1.10,2013-04-03 15:57:00,
2013-04-03 09:12:00,47.9,47.0,30.13,West,275,0.0,2.0,96,0.00,,,0.01,246,weatherlink.com 1.10,2013-04-03 16:12:00,
2013-04-03 09:27:00,47.7,46.0,30.13,WNW,288,0.0,4.0,95,0.00,,,0.01,179,weatherlink.com 1.10,2013-04-03 16:27:00,
2013-04-03 09:42:00,48.3,47.0,30.13,WNW,288,0.0,1.0,95,0.00,,,0.01,251,weatherlink.com 1.10,2013-04-03 16:42:00,
2013-04-03 09:57:00,49.0,48.0,30.13,NNW,329,0.0,3.0,95,0.00,,,0.01,271,weatherlink.com 1.10,2013-04-03 16:57:00,
2013-04-03 10:12:00,49.0,48.0,30.13,South,186,0.0,3.0,95,0.00,,,0.01,234,weatherlink.com 1.10,2013-04-03 17:12:00,
2013-04-03 10:27:00,49.7,49.0,30.13,SW,227,1.0,2.0,96,0.00,,,0.01,299,weatherlink.com 1.10,2013-04-03 17:27:00,
2013-04-03 10:42:00,50.7,49.0,30.13,SW,227,0.0,2.0,95,0.00,,,0.01,411,weatherlink.com 1.10,2013-04-03 17:42:00,
2013-04-03 10:57:00,52.3,51.0,30.13,East,98,0.0,2.0,95,0.00,,,0.01,302,weatherlink.com 1.10,2013-04-03 17:57:00,
2013-04-03 11:13:00,54.1,53.0,30.12,ENE,57,0.0,3.0,94,0.00,,,0.01,759,weatherlink.com 1.10,2013-04-03 18:13:00,
2013-04-03 11:43:00,57.7,54.0,30.11,East,87,2.0,4.0,88,0.00,,,0.01,905,weatherlink.com 1.10,2013-04-03 18:43:00,
2013-04-03 11:58:00,59.5,54.0,30.10,NE,53,0.0,6.0,83,0.00,,,0.01,865,weatherlink.com 1.10,2013-04-03 18:58:00,
2013-04-03 12:13:00,61.1,55.0,30.09,NE,39,1.0,6.0,80,0.00,,,0.01,851,weatherlink.com 1.10,2013-04-03 19:13:00,
2013-04-03 12:28:00,62.2,54.0,30.09,NE,56,0.0,6.0,74,0.00,,,0.01,649,weatherlink.com 1.10,2013-04-03 19:28:00,
2013-04-03 12:43:00,63.0,53.0,30.08,NNE,32,1.0,5.0,71,0.00,,,0.01,534,weatherlink.com 1.10,2013-04-03 19:43:00,
2013-04-03 12:58:00,64.4,55.0,30.07,NE,54,3.0,5.0,71,0.00,,,0.01,802,weatherlink.com 1.10,2013-04-03 19:58:00,
2013-04-03 13:13:00,65.3,54.0,30.06,NE,39,1.0,5.0,66,0.00,,,0.01,436,weatherlink.com 1.10,2013-04-03 20:13:00,
2013-04-03 13:28:00,67.6,58.0,30.05,NNE,15,0.0,3.0,71,0.00,,,0.01,972,weatherlink.com 1.10,2013-04-03 20:28:00,
2013-04-03 13:43:00,68.2,56.0,30.05,South,188,0.0,4.0,66,0.00,,,0.01,464,weatherlink.com 1.10,2013-04-03 20:43:00,
2013-04-03 13:58:00,69.0,60.0,30.04,NNE,18,2.0,5.0,72,0.00,,,0.01,949,weatherlink.com 1.10,2013-04-03 20:58:00,
2013-04-03 14:13:00,70.2,57.0,30.03,ENE,67,2.0,6.0,64,0.00,,,0.01,888,weatherlink.com 1.10,2013-04-03 21:13:00,
2013-04-03 14:58:00,72.8,59.0,30.02,South,188,3.0,12.0,62,0.00,,,0.01,798,weatherlink.com 1.10,2013-04-03 21:58:00,
2013-04-03 15:13:00,72.2,56.0,30.01,West,263,3.0,10.0,58,0.00,,,0.01,772,weatherlink.com 1.10,2013-04-03 22:13:00,
2013-04-03 15:28:00,73.0,58.0,30.01,WSW,257,1.0,8.0,59,0.00,,,0.01,758,weatherlink.com 1.10,2013-04-03 22:28:00,
2013-04-03 16:14:00,69.0,58.0,30.00,SSW,194,0.0,8.0,67,0.00,,,0.01,534,weatherlink.com 1.10,2013-04-03 23:14:00,
2013-04-03 16:29:00,69.3,59.0,29.99,WSW,247,3.0,8.0,69,0.00,,,0.01,431,weatherlink.com 1.10,2013-04-03 23:29:00,
2013-04-03 16:44:00,66.8,57.0,29.99,South,186,6.0,12.0,70,0.00,,,0.01,568,weatherlink.com 1.10,2013-04-03 23:44:00,
2013-04-03 17:14:00,65.2,57.0,29.99,SW,224,0.0,9.0,75,0.00,,,0.01,281,weatherlink.com 1.10,2013-04-04 00:14:00,
2013-04-03 17:44:00,66.3,56.0,29.99,SW,229,6.0,8.0,70,0.00,,,0.01,246,weatherlink.com 1.10,2013-04-04 00:44:00,
2013-04-03 17:59:00,64.2,55.0,29.99,SSW,206,0.0,8.0,73,0.00,,,0.01,100,weatherlink.com 1.10,2013-04-04 00:59:00,
2013-04-03 18:14:00,61.8,54.0,29.98,SSW,198,5.0,8.0,76,0.00,,,0.01,148,weatherlink.com 1.10,2013-04-04 01:14:00,
2013-04-03 18:44:00,60.6,52.0,29.99,SSW,192,0.0,5.0,74,0.00,,,0.01,84,weatherlink.com 1.10,2013-04-04 01:44:00,
2013-04-03 18:59:00,59.3,52.0,29.99,South,176,5.0,7.0,76,0.00,,,0.01,47,weatherlink.com 1.10,2013-04-04 01:59:00,
2013-04-03 19:14:00,57.5,51.0,29.99,South,173,0.0,6.0,79,0.00,,,0.01,19,weatherlink.com 1.10,2013-04-04 02:14:00,
2013-04-03 19:29:00,56.5,51.0,29.98,South,173,0.0,3.0,81,0.00,,,0.01,0,weatherlink.com 1.10,2013-04-04 02:29:00,
2013-04-03 19:44:00,56.3,51.0,29.98,South,183,2.0,6.0,81,0.00,,,0.01,0,weatherlink.com 1.10,2013-04-04 02:44:00,
2013-04-03 19:59:00,54.6,50.0,29.98,SSE,153,0.0,5.0,84,0.00,,,0.01,0,weatherlink.com 1.10,2013-04-04 02:59:00,
2013-04-03 20:14:00,53.0,49.0,29.99,SE,146,0.0,4.0,86,0.00,,,0.01,0,weatherlink.com 1.10,2013-04-04 03:14:00,
2013-04-03 20:29:00,51.9,48.0,30.00,SE,146,0.0,1.0,87,0.00,,,0.01,0,weatherlink.com 1.10,2013-04-04 03:29:00,
2013-04-03 20:44:00,50.8,48.0,30.00,SE,146,0.0,1.0,89,0.00,,,0.01,0,weatherlink.com 1.10,2013-04-04 03:44:00,
2013-04-03 20:59:00,50.2,47.0,30.00,SE,146,0.0,1.0,90,0.00,,,0.01,0,weatherlink.com 1.10,2013-04-04 03:59:00,
2013-04-03 21:14:00,50.0,48.0,30.01,SE,146,0.0,0.0,91,0.00,,,0.01,0,weatherlink.com 1.10,2013-04-04 04:14:00,
2013-04-03 21:29:00,49.8,48.0,30.01,SE,146,0.0,0.0,92,0.00,,,0.01,0,weatherlink.com 1.10,2013-04-04 04:29:00,
2013-04-03 21:44:00,49.5,47.0,30.01,SE,146,0.0,1.0,92,0.00,,,0.01,0,weatherlink.com 1.10,2013-04-04 04:44:00,
2013-04-03 21:59:00,49.1,47.0,30.01,SE,146,0.0,0.0,92,0.00,,,0.01,0,weatherlink.com 1.10,2013-04-04 04:59:00,
2013-04-03 22:14:00,48.8,47.0,30.01,SE,146,0.0,1.0,93,0.00,,,0.01,0,weatherlink.com 1.10,2013-04-04 05:14:00,
2013-04-03 22:44:00,48.8,47.0,30.02,SE,146,0.0,0.0,93,0.00,,,0.01,0,weatherlink.com 1.10,2013-04-04 05:44:00,
2013-04-03 22:59:00,48.6,47.0,30.01,SE,134,0.0,3.0,93,0.00,,,0.01,0,weatherlink.com 1.10,2013-04-04 05:59:00,
2013-04-03 23:14:00,48.7,47.0,30.01,SE,134,0.0,1.0,93,0.00,,,0.01,0,weatherlink.com 1.10,2013-04-04 06:14:00,
2013-04-03 23:29:00,48.7,47.0,30.01,SE,134,0.0,0.0,93,0.00,,,0.01,0,weatherlink.com 1.10,2013-04-04 06:29:00,
2013-04-03 23:44:00,48.6,47.0,30.01,SE,134,0.0,0.0,93,0.00,,,0.01,0,weatherlink.com 1.10,2013-04-04 06:44:00,
2013-04-03 23:59:00,48.5,47.0,30.01,SE,134,0.0,2.0,93,0.00,,,0.00,0,weatherlink.com 1.10,2013-04-04 06:59:00,